Location: Bats
(43.6587°N, 0.4584°W)
Time: 19:22:55
(UTC+00:00)

USA 267 - Pass Details

Date: 12 January 2026
Orbit: 1101 x 1107 km, 123.0° (Epoch: 10 January)

Event Time Altitude Azimuth Distance (km) Brightness Sun altitude
Exits shadow 18:46:12 35° 92° (E) 1,701 3.7 -21.0°
Maximum altitude 18:48:53 58° 31° (NNE) 1,271 3.3 -21.5°
Drops below altitude 10° 18:55:16 10° 315° (NW) 2,965 6.0 -22.6°
Sets 18:57:47 0° 311° (NW) 3,924 6.7 -23.1°
